Temp
84 99 96 95 80 83 82 88 97 93 93 100 95 84 73 72 67 68 98 102 97 92 85 85 80 81 81 81 80 80 80 80 80 80 80 80 80 80 80 80 81 81 82 82 82 82 82 82 82
91 96 101 92 79 75 76 94 91 94 97 102 89 84 79 72 81 91 94 100 97 91 87 85 80 80 81 80 80 80 80 80 80 79 80 80 80 80 80 80 81 82 82 82 82 82 82 82 81
89 98 90 88 84 76 77 90 94 97 101 100 97 99 94 88 95 95 99 99 97 92 90 82 80 80 80 80 80 80 80 80 80 80 80 80 80 80 80 80 81 82 82 82 82 82 81 81 81
99 99 94 82 81 87 90 93 97 97 99 102 99 89 96 101 97 100 103 101 96 95 91 81 80 80 80 80 80 80 80 80 80 80 80 80 80 79 79 80 80 81 82 82 82 81 81 81 80
100 94 81 81 84 86 95 97 98 96 98 99 100 89 90 99 103 103 103 102 98 96 88 84 80 80 80 80 80 79 79 79 79 80 80 80 79 79 79 80 80 81 82 82 81 81 80 80 80
87 93 78 77 85 90 96 98 98 98 99 99 98 93 92 102 102 103 105 104 104 96 92 85 80 80 79 80 79 79 79 79 79 79 79 79 79 79 79 80 80 81 81 81 81 80 80 79 79
86 82 78 80 81 85 93 99 96 96 96 94 101 90 95 100 105 107 106 106 104 100 93 90 87 82 80 79 79 79 79 79 79 79 79 79 79 79 79 79 80 80 80 80 80 80 79 79 79
92 86 77 81 80 82 94 97 99 97 93 103 103 90 89 98 106 108 108 106 105 101 97 93 90 87 85 82 79 79 79 78 78 78 78 78 79 79 79 78 79 79 79 79 79 79 79 78 78
95 78 73 78 73 77 95 93 100 101 97 99 100 97 100 104 106 106 105 105 104 104 99 98 93 90 91 89 82 79 79 79 78 79 78 78 81 80 81 81 81 79 79 79 79 79 78 78 78
84 73 76 85 86 86 91 92 95 94 95 95 96 100 102 103 103 102 102 102 102 102 103 101 93 95 95 94 83 84 84 82 81 82 79 81 82 83 88 84 80 79 79 79 78 78 78 78 80
85 77 83 86 88 91 89 88 94 91 89 95 93 97 100 100 100 101 102 104 105 103 97 97 95 95 98 88 85 88 86 85 84 84 82 81 85 85 86 81 82 80 78 82 81 80 79 81 83
82 87 87 87 90 89 86 91 88 90 91 99 99 99 98 97 99 100 102 104 104 99 98 95 95 92 93 93 91 89 87 86 87 86 84 83 84 83 82 81 80 79 81 80 80 82 81 81 83
86 86 89 89 89 89 91 87 86 87 95 98 99 97 96 96 97 100 101 103 102 95 92 93 92 89 91 91 87 89 84 87 88 85 88 85 83 80 80 79 80 77 79 79 78 77 79 79 83
91 89 87 89 86 88 87 86 88 89 95 94 95 94 95 96 98 98 99 98 96 95 91 93 95 88 91 90 89 84 84 85 85 84 86 85 80 79 80 77 80 82 82 82 82 81 80 80 82
90 82 84 86 87 84 87 81 82 90 91 90 90 91 93 96 98 97 96 96 96 96 90 90 91 88 86 88 88 87 86 85 75 78 78 79 80 78 80 79 82 80 80 80 80 81 80 79 82
82 82 73 84 87 87 84 70 86 94 90 85 88 90 92 91 95 97 98 95 94 96 88 90 97 87 84 85 86 86 83 80 81 80 80 81 83 82 82 82 79 79 78 78 78 77 76 75 76
79 70 75 79 90 85 81 75 87 91 88 86 86 88 90 91 93 95 97 94 94 92 92 91 91 87 83 83 85 85 85 84 83 78 75 76 85 84 81 80 77 77 77 77 77 74 73 72 73
71 74 77 77 83 83 79 78 85 90 88 85 86 88 90 91 89 88 90 91 90 88 89 87 86 83 83 83 84 86 85 85 76 80 77 81 81 81 77 79 78 79 76 75 74 73 74 73 73
79 76 75 81 83 79 76 76 81 86 88 87 87 85 88 89 88 89 88 89 88 86 84 84 84 82 81 83 82 83 82 83 81 81 81 82 81 80 79 77 76 76 74 73 74 73 71 72 73
77 74 74 81 84 79 75 74 80 84 85 87 86 86 86 87 86 85 86 86 84 83 84 86 85 82 83 82 81 82 80 82 81 80 79 80 80 80 79 76 74 73 72 72 72 71 70 71 71
75 73 74 72 77 79 75 71 75 85 86 86 85 86 87 85 82 82 82 82 83 81 81 81 81 81 80 79 80 79 78 78 78 77 77 79 80 79 77 76 75 73 72 70 69 69 67 67 69
69 77 75 72 69 62 76 59 73 79 78 80 82 83 84 84 84 83 82 81 81 80 81 80 79 79 81 79 82 81 78 76 77 77 76 76 79 78 78 76 74 72 70 68 69 70 66 66 65
71 77 73 72 68 67 68 65 72 77 74 76 80 82 84 84 85 84 83 82 82 81 79 78 77 76 76 75 74 73 74 77 78 76 74 73 74 76 79 77 73 71 69 68 67 67 66 67 66
77 73 73 72 69 58 67 67 69 71 75 77 80 82 83 84 85 84 83 84 83 83 81 79 77 76 76 76 75 73 71 71 71 71 71 72 74 73 75 73 71 70 68 68 67 66 66 65 65
75 68 57 57 56 57 70 65 69 75 79 79 79 81 82 83 83 83 82 81 81 83 82 82 79 78 78 76 75 74 72 71 70 71 71 70 70 70 70 70 68 68 67 67 66 65 64 65 65
70 67 57 47 51 57 69 60 69 78 80 80 81 80 77 78 79 79 77 78 78 77 75 73 75 77 79 77 77 76 73 72 71 72 69 69 68 69 71 70 69 67 67 67 65 66 65 65 65
68 64 70 59 62 56 63 70 74 77 75 76 76 76 76 77 77 77 78 77 77 76 75 75 74 72 73 77 75 73 73 71 70 69 69 69 69 70 69 68 67 67 66 66 65 65 64 65 65
71 74 58 61 46 45 57 59 62 68 70 73 73 74 76 77 78 77 78 78 77 77 75 73 71 70 71 69 70 73 68 69 70 70 68 68 68 68 68 67 66 66 66 66 64 65 65 64 64
67 64 65 64 59 47 45 54 72 68 71 71 73 75 75 74 75 75 76 77 77 77 78 74 72 67 70 67 68 64 66 67 68 69 68 68 68 68 67 67 66 65 65 65 64 64 64 63 63
69 64 63 50 49 54 51 50 73 73 73 72 73 73 73 73 74 74 74 75 75 75 75 73 70 70 70 68 64 63 63 60 62 61 64 65 64 65 66 66 65 65 65 64 63 63 63 62 61
MSLP
1007.13 1005.87 1005.78 1004.89 1004.06 1001.27 998.53 996.63 996.11 996.25 997.10 998.23 1000.10 1002.73 1005.38 1005.92 1006.81 1004.69 1003.77 1004.06 1005.50 1006.71 1007.82 1008.25 1008.59 1008.79 1009.15 1009.48 1009.89 1010.37 1010.77 1011.16 1011.52 1011.82 1012.18 1012.47 1012.63 1012.82 1013.06 1013.22 1013.40 1013.51 1013.66 1013.84 1013.99 1014.14 1014.28 1014.41 1014.53
1006.95 1005.77 1004.10 1003.29 1001.95 1000.33 998.96 996.66 996.09 996.57 997.47 998.07 1000.71 1002.77 1003.66 1005.97 1005.28 1004.22 1004.00 1004.61 1005.93 1006.96 1007.63 1008.37 1008.81 1009.03 1009.34 1009.69 1010.04 1010.46 1010.86 1011.20 1011.56 1011.88 1012.26 1012.62 1012.87 1013.07 1013.25 1013.42 1013.60 1013.77 1013.86 1014.00 1014.17 1014.29 1014.43 1014.55 1014.66
1006.98 1005.55 1004.06 1001.73 1000.29 999.37 999.56 997.55 996.80 996.96 997.38 997.79 998.98 1000.32 1001.46 1002.77 1003.45 1003.76 1004.45 1005.31 1006.10 1006.82 1007.59 1008.70 1009.03 1009.19 1009.50 1009.88 1010.20 1010.56 1010.96 1011.37 1011.73 1012.05 1012.42 1012.69 1012.90 1013.18 1013.40 1013.57 1013.77 1013.89 1014.01 1014.16 1014.32 1014.46 1014.57 1014.67 1014.75
1005.26 1003.80 1003.32 1001.29 999.48 998.75 998.06 997.78 997.51 997.16 997.53 997.88 998.71 1000.54 1001.93 1002.24 1002.92 1003.64 1004.29 1004.91 1005.91 1006.67 1007.52 1008.78 1009.07 1009.33 1009.73 1010.08 1010.39 1010.72 1011.04 1011.40 1011.74 1012.18 1012.54 1012.82 1013.10 1013.33 1013.54 1013.70 1013.86 1014.00 1014.14 1014.24 1014.37 1014.48 1014.57 1014.69 1014.78
1004.80 1003.70 1002.46 1000.81 999.25 999.00 998.33 997.91 997.85 997.00 997.15 997.67 998.50 1000.41 1001.74 1002.69 1003.15 1003.41 1003.85 1004.57 1005.52 1006.41 1007.84 1008.83 1009.18 1009.34 1009.69 1010.01 1010.42 1010.91 1011.27 1011.62 1011.92 1012.25 1012.59 1012.84 1013.13 1013.38 1013.59 1013.73 1013.90 1014.04 1014.15 1014.26 1014.36 1014.50 1014.65 1014.77 1014.80
1004.42 1003.07 1002.15 1000.47 999.25 998.52 998.24 998.07 997.79 997.27 997.09 997.98 998.63 999.63 1001.33 1002.31 1002.73 1003.01 1003.51 1004.13 1004.89 1006.38 1007.72 1008.84 1009.40 1009.61 1009.92 1010.20 1010.56 1010.89 1011.28 1011.66 1012.02 1012.31 1012.62 1012.90 1013.20 1013.47 1013.68 1013.88 1014.01 1014.13 1014.28 1014.39 1014.46 1014.59 1014.69 1014.81 1014.90
1004.12 1003.57 1002.31 1001.22 1000.59 999.38 998.20 998.38 998.08 997.83 998.04 998.70 999.02 999.83 1001.19 1001.41 1002.09 1002.32 1002.88 1003.68 1004.61 1006.01 1007.77 1008.73 1009.36 1009.88 1010.27 1010.47 1010.76 1011.12 1011.43 1011.69 1011.92 1012.20 1012.53 1012.81 1013.10 1013.42 1013.69 1013.94 1014.07 1014.20 1014.31 1014.37 1014.47 1014.58 1014.60 1014.68 1014.76
1004.25 1003.95 1003.13 1001.92 1001.00 999.95 999.44 998.97 998.93 998.95 999.42 999.60 999.73 1000.32 1001.24 1001.91 1002.06 1002.35 1002.62 1003.25 1004.13 1005.16 1006.45 1007.73 1008.90 1009.71 1010.08 1010.52 1010.94 1011.27 1011.56 1011.80 1012.07 1012.28 1012.53 1012.76 1012.93 1013.20 1013.41 1013.61 1013.79 1013.95 1014.08 1014.14 1014.24 1014.33 1014.42 1014.48 1014.55
1004.76 1004.65 1003.55 1002.03 1003.14 1001.91 1000.60 999.70 999.33 999.95 999.86 1000.10 1000.66 1001.43 1002.06 1002.26 1002.13 1002.01 1002.20 1002.61 1003.19 1003.95 1005.13 1006.01 1007.32 1008.44 1009.03 1009.69 1010.70 1011.33 1011.73 1011.97 1012.19 1012.41 1012.63 1012.82 1012.82 1013.05 1013.20 1013.30 1013.36 1013.68 1013.84 1013.99 1014.11 1014.20 1014.17 1014.15 1014.12
1004.59 1005.04 1003.77 1003.09 1003.68 1002.32 1001.98 1001.03 1000.19 1000.33 1000.08 1000.26 1000.85 1001.60 1002.12 1002.25 1002.30 1002.03 1002.18 1002.25 1002.59 1003.43 1004.03 1005.13 1006.43 1007.17 1007.58 1008.44 1010.20 1010.74 1011.27 1011.77 1011.98 1012.02 1012.33 1012.31 1012.02 1012.16 1012.00 1012.46 1012.96 1013.16 1013.45 1013.67 1013.80 1013.69 1013.91 1014.08 1013.78
1004.47 1004.56 1003.15 1003.50 1003.67 1003.00 1002.59 1002.26 1001.53 1001.01 1000.78 1000.63 1001.10 1001.38 1001.99 1002.44 1002.53 1002.48 1002.34 1002.17 1002.32 1002.91 1003.92 1005.01 1006.05 1006.53 1006.94 1008.24 1009.28 1009.60 1010.37 1010.96 1011.41 1011.52 1011.86 1011.87 1011.50 1011.56 1011.64 1012.24 1012.74 1013.21 1013.46 1013.27 1013.11 1013.30 1013.59 1013.26 1012.95
1003.52 1003.95 1004.24 1003.54 1003.23 1002.97 1002.96 1002.81 1002.29 1002.04 1001.73 1001.37 1001.74 1002.24 1002.66 1002.83 1002.83 1002.67 1002.63 1002.61 1002.73 1003.47 1004.34 1005.29 1006.18 1006.94 1007.35 1008.17 1008.51 1008.53 1009.50 1009.96 1010.40 1010.82 1011.08 1011.07 1011.23 1011.25 1011.83 1012.51 1012.81 1012.87 1013.04 1013.02 1012.98 1012.97 1012.96 1012.74 1012.39
1002.42 1003.08 1003.57 1003.23 1002.95 1003.07 1003.01 1002.99 1002.75 1002.55 1002.39 1002.40 1002.44 1002.66 1002.99 1003.20 1003.13 1003.18 1003.20 1003.18 1003.44 1004.16 1004.97 1005.62 1006.35 1007.15 1007.84 1008.23 1008.59 1008.66 1009.22 1009.90 1009.63 1010.08 1010.26 1010.43 1010.72 1011.20 1011.55 1012.09 1012.49 1012.57 1012.59 1012.67 1012.91 1012.83 1012.68 1012.61 1012.22
1001.89 1002.40 1002.83 1002.73 1003.29 1003.65 1003.20 1002.93 1003.07 1002.58 1002.92 1002.79 1002.67 1002.94 1003.26 1003.28 1003.14 1003.26 1003.58 1003.87 1004.17 1004.46 1005.25 1005.87 1006.48 1007.33 1008.12 1008.56 1008.78 1009.29 1009.16 1009.31 1009.49 1009.07 1008.52 1009.49 1010.47 1010.46 1010.76 1011.79 1012.18 1011.96 1012.21 1012.34 1012.44 1012.44 1012.42 1012.27 1011.98
1002.24 1002.56 1002.86 1002.59 1002.88 1003.20 1003.65 1002.80 1002.41 1002.34 1002.76 1002.57 1002.96 1003.27 1003.56 1003.29 1003.41 1003.46 1004.04 1004.25 1004.62 1005.02 1005.78 1006.34 1006.99 1007.61 1008.38 1008.86 1009.14 1009.27 1009.41 1009.52 1010.22 1008.73 1008.74 1010.90 1008.71 1011.70 1010.27 1011.13 1011.73 1012.08 1012.20 1012.37 1012.28 1012.19 1012.12 1012.19 1012.07
1002.98 1002.97 1002.43 1001.78 1001.73 1002.47 1003.33 1003.12 1002.37 1001.07 1002.11 1002.93 1003.58 1003.42 1003.37 1003.32 1003.72 1003.63 1003.92 1004.73 1005.13 1005.52 1006.09 1006.39 1006.59 1007.64 1008.53 1008.99 1009.23 1009.38 1009.49 1009.65 1009.88 1009.71 1009.95 1010.57 1010.53 1010.88 1010.06 1010.97 1011.91 1012.15 1012.40 1012.74 1012.62 1012.53 1012.63 1012.63 1012.52
1002.68 1002.00 1001.36 1000.68 999.82 1001.55 1002.68 1002.70 1001.99 1002.37 1002.64 1002.95 1003.13 1003.20 1003.37 1003.29 1003.64 1003.86 1004.24 1005.15 1005.80 1006.12 1006.40 1006.80 1006.94 1007.59 1008.55 1009.07 1009.30 1009.47 1009.56 1009.68 1009.53 1009.75 1010.33 1010.65 1009.90 1010.05 1010.81 1011.58 1012.25 1012.49 1012.82 1012.93 1012.85 1012.96 1013.01 1013.04 1012.65
1001.49 1000.74 1000.55 999.81 1000.40 1001.68 1002.26 1002.00 1002.07 1001.75 1001.96 1002.59 1002.92 1003.16 1003.20 1003.43 1004.18 1005.01 1005.52 1005.90 1006.30 1006.80 1006.91 1007.29 1007.45 1007.73 1008.46 1009.04 1009.19 1009.06 1009.30 1009.42 1010.15 1010.06 1011.12 1010.99 1011.04 1011.23 1011.88 1012.11 1012.46 1012.63 1012.94 1013.05 1013.13 1013.21 1013.09 1012.99 1012.59
1001.54 1001.26 1000.66 1000.31 1001.29 1001.96 1002.42 1002.62 1002.28 1001.78 1001.53 1001.92 1002.36 1003.19 1003.28 1003.81 1004.85 1005.78 1006.59 1006.89 1007.15 1007.62 1007.79 1007.98 1008.02 1008.04 1008.66 1009.09 1009.22 1008.97 1009.26 1009.29 1009.80 1010.35 1010.83 1011.12 1011.44 1011.97 1012.27 1012.57 1012.77 1013.04 1013.23 1013.38 1013.41 1013.36 1013.28 1012.92 1012.52
1002.25 1002.02 1001.51 1001.17 1001.15 1002.09 1002.80 1002.52 1002.05 1001.55 1001.55 1001.91 1002.40 1003.23 1003.78 1004.36 1005.44 1006.69 1007.42 1007.75 1008.15 1008.36 1008.41 1008.48 1008.32 1008.56 1008.92 1009.09 1009.18 1009.09 1008.92 1008.37 1009.74 1010.60 1011.19 1011.52 1011.94 1012.31 1012.51 1012.94 1013.14 1013.34 1013.47 1013.52 1013.45 1013.43 1013.38 1013.10 1012.73
1002.79 1002.56 1002.15 1002.36 1002.51 1002.86 1002.66 1001.94 1001.17 1000.12 1001.27 1002.24 1003.28 1003.91 1004.36 1005.02 1006.15 1007.28 1008.01 1008.50 1008.77 1009.12 1009.38 1009.32 1009.13 1009.31 1009.55 1009.71 1009.54 1009.42 1009.40 1009.30 1010.23 1011.05 1011.59 1011.91 1012.15 1012.44 1012.72 1012.91 1013.13 1013.37 1013.58 1013.62 1013.66 1013.58 1013.51 1013.16 1012.80
1003.16 1003.49 1003.50 1003.66 1003.75 1003.19 1002.66 1002.01 1001.16 1000.83 1001.77 1002.72 1003.58 1004.40 1004.78 1005.62 1006.54 1007.44 1008.21 1008.94 1009.43 1009.81 1010.06 1010.15 1010.15 1010.21 1010.21 1010.17 1009.78 1010.03 1010.15 1010.25 1010.47 1011.01 1011.73 1012.09 1012.20 1012.45 1012.61 1012.69 1012.89 1013.24 1013.54 1013.70 1013.68 1013.67 1013.70 1013.47 1012.87
1004.02 1004.49 1004.72 1004.50 1004.21 1003.86 1003.09 1002.08 1000.69 1000.68 1001.44 1002.44 1003.49 1004.27 1004.97 1005.92 1006.46 1007.17 1008.01 1008.92 1009.62 1010.18 1010.66 1010.99 1011.13 1011.18 1011.15 1011.18 1011.24 1011.25 1011.18 1010.87 1011.08 1011.41 1011.65 1012.05 1012.26 1012.29 1012.30 1012.45 1012.83 1013.28 1013.55 1013.70 1013.74 1013.61 1013.51 1013.39 1013.01
1005.29 1005.14 1004.57 1004.13 1003.95 1003.37 1002.24 1001.58 1000.59 1001.12 1001.84 1002.77 1003.67 1004.34 1005.17 1005.90 1006.59 1007.46 1008.31 1008.91 1009.48 1009.93 1010.42 1011.08 1011.59 1011.82 1011.85 1011.87 1011.89 1012.02 1011.99 1011.99 1012.02 1012.21 1012.29 1012.40 1012.26 1012.30 1012.40 1012.67 1013.09 1013.37 1013.55 1013.55 1013.58 1013.44 1013.32 1013.15 1012.81
1005.14 1005.03 1004.38 1003.33 1003.70 1002.67 1002.47 1002.54 1001.72 1001.98 1002.54 1003.42 1004.03 1004.66 1005.35 1006.37 1007.31 1007.96 1008.20 1008.61 1009.80 1009.92 1010.10 1010.75 1011.29 1011.69 1011.94 1012.30 1012.43 1012.56 1012.70 1012.81 1012.84 1012.77 1012.65 1012.63 1012.65 1012.68 1012.82 1013.04 1013.26 1013.45 1013.44 1013.49 1013.42 1013.22 1012.98 1012.71 1012.33
1005.77 1006.02 1005.73 1005.26 1004.62 1003.88 1003.42 1002.73 1001.92 1002.65 1003.82 1004.77 1005.33 1006.01 1007.04 1007.72 1008.36 1009.04 1009.67 1010.16 1010.61 1011.27 1011.28 1011.61 1011.64 1011.61 1011.55 1011.82 1012.19 1012.61 1013.01 1013.27 1013.22 1013.02 1013.24 1013.17 1013.21 1013.27 1013.14 1013.29 1013.37 1013.31 1013.20 1013.16 1013.04 1012.84 1012.49 1012.19 1011.74
1006.36 1006.19 1006.91 1006.88 1006.63 1005.87 1004.58 1003.70 1003.64 1003.96 1005.16 1006.10 1006.68 1007.22 1007.86 1008.57 1009.07 1009.48 1009.95 1010.48 1010.90 1011.39 1011.84 1012.10 1012.22 1012.22 1012.21 1011.72 1011.93 1012.21 1012.62 1013.10 1013.34 1013.47 1013.58 1013.63 1013.47 1013.44 1013.32 1013.41 1013.21 1013.08 1012.96 1012.82 1012.74 1012.43 1012.07 1011.70 1011.31
1007.17 1007.35 1007.57 1007.35 1007.40 1006.97 1006.05 1005.43 1004.84 1005.41 1005.94 1006.58 1007.49 1007.94 1008.19 1008.78 1009.26 1009.67 1010.04 1010.58 1010.95 1011.25 1011.53 1011.77 1012.19 1012.64 1012.74 1012.91 1012.42 1012.35 1012.27 1012.49 1012.60 1013.01 1013.25 1013.44 1013.46 1013.48 1013.41 1013.29 1013.26 1013.18 1012.92 1012.58 1012.39 1012.00 1011.60 1011.30 1011.01
1007.34 1007.63 1007.98 1008.18 1008.70 1008.57 1008.08 1007.00 1005.87 1006.63 1006.77 1007.36 1007.83 1008.22 1008.74 1009.54 1010.14 1010.52 1010.85 1011.01 1011.16 1011.41 1011.55 1011.71 1011.86 1011.86 1012.20 1012.54 1012.52 1013.18 1013.19 1012.59 1012.59 1012.56 1012.79 1012.90 1012.92 1013.16 1013.32 1013.23 1013.09 1013.04 1012.78 1012.35 1011.92 1011.64 1011.26 1011.00 1010.68
1008.72 1008.91 1009.16 1009.63 1010.16 1010.10 1009.62 1008.43 1007.91 1007.54 1007.91 1008.14 1008.64 1009.03 1009.74 1010.41 1010.84 1011.09 1011.41 1011.70 1011.80 1011.94 1012.04 1012.09 1012.43 1012.68 1012.85 1012.80 1012.85 1013.06 1012.78 1013.17 1013.07 1013.41 1012.95 1013.11 1012.92 1012.53 1012.90 1013.19 1012.91 1012.72 1012.62 1012.09 1011.69 1011.43 1011.14 1010.92 1010.66
Wind_Speed
17 15 11 10 6 9 10 3 5 11 11 14 27 21 21 21 9 1 6 18 20 17 13 13 14 14 13 14 15 14 13 12 11 11 11 10 10 10 10 10 9 9 10 9 8 7 6 6 6
12 17 9 7 10 8 4 6 10 14 12 10 27 31 23 10 7 9 9 18 19 16 11 12 13 14 14 13 13 13 13 12 12 12 11 10 9 9 10 9 8 8 8 8 7 6 5 5 4
16 14 8 8 13 6 8 15 9 11 3 3 14 19 17 19 13 8 15 18 18 14 13 13 13 14 14 13 13 13 12 12 11 11 11 10 10 9 9 9 7 6 6 6 5 5 4 3 3
8 6 7 10 19 7 9 3 7 4 4 4 20 17 17 17 19 16 18 19 17 15 16 14 14 13 13 13 12 12 12 12 12 11 11 10 9 8 8 8 6 5 4 4 4 4 3 2 2
10 9 12 18 20 13 9 8 8 8 6 8 10 21 18 15 14 14 14 16 17 18 15 14 13 14 14 14 13 11 11 10 10 11 10 10 9 8 8 8 7 6 5 4 3 2 1 1 2
5 7 14 17 14 5 5 4 5 8 6 11 3 21 16 16 14 15 16 16 16 18 15 13 12 12 12 12 12 12 12 11 10 10 9 9 8 8 7 6 6 5 3 2 1 1 1 2 3
11 11 17 20 16 11 5 5 6 9 14 17 12 18 14 16 11 11 14 15 15 20 16 11 11 10 10 10 11 11 11 11 11 10 10 9 9 8 7 6 5 4 2 2 3 3 4 5 6
10 8 19 18 7 7 12 3 6 7 13 5 7 12 12 8 9 11 13 15 16 19 19 16 12 10 9 9 10 10 10 10 9 9 9 9 9 9 9 8 8 7 6 5 5 6 6 7 8
9 13 11 22 25 19 9 5 9 5 6 9 10 14 10 8 3 7 9 10 14 14 18 18 18 15 12 14 11 10 10 9 9 8 8 8 6 8 10 10 9 11 9 7 7 8 9 10 11
5 11 21 17 16 17 14 16 12 6 6 7 11 10 6 5 5 4 6 7 13 11 14 18 16 16 13 12 13 10 9 7 7 8 9 7 8 9 8 9 13 14 11 10 10 13 11 9 7
13 14 22 21 24 17 12 16 20 13 6 7 11 7 10 2 2 6 7 8 4 10 8 14 8 6 6 14 10 7 7 6 6 8 8 8 5 5 4 5 5 4 9 6 9 8 7 9 8
16 16 15 20 18 23 13 18 12 13 15 16 5 7 7 2 7 8 8 7 5 13 9 13 10 6 3 6 7 8 6 7 7 8 10 6 2 1 5 4 3 3 2 3 3 1 4 7 8
18 12 14 14 19 19 14 18 16 16 13 16 8 5 5 9 9 9 9 10 4 10 9 7 8 7 4 2 6 3 7 4 6 5 7 4 3 4 4 3 0 2 3 1 2 3 4 5 7
15 11 18 17 8 20 17 17 16 16 16 13 12 6 8 15 10 6 4 6 7 8 8 7 5 8 3 2 4 3 3 3 2 6 10 10 3 4 5 2 4 4 4 4 2 4 4 5 6
11 13 13 14 16 16 16 19 18 19 15 3 2 7 10 11 11 4 6 2 4 5 9 7 5 9 6 2 1 3 3 3 3 6 10 9 11 6 6 6 2 4 4 6 4 3 4 5 6
9 14 17 18 24 16 8 13 19 10 15 5 7 10 13 7 7 4 4 4 6 2 8 6 8 13 9 4 3 4 4 3 2 4 2 6 4 7 2 1 6 5 5 4 3 3 5 5 6
14 16 20 23 13 13 15 13 9 6 5 5 5 7 9 6 7 5 1 5 3 5 3 2 3 14 11 8 4 5 6 5 7 5 3 9 5 8 6 5 5 6 3 3 4 4 4 5 5
19 17 17 14 14 7 9 13 13 10 12 10 7 9 8 6 9 12 9 8 7 7 4 5 6 13 9 7 5 3 4 4 5 9 6 8 5 8 6 3 5 0 3 4 4 4 4 5 6
9 14 15 8 11 4 5 11 15 13 9 8 4 6 6 4 12 9 8 6 5 7 6 5 6 9 6 5 5 4 6 3 8 7 7 6 6 6 3 5 5 5 4 5 5 4 6 6 4
9 12 14 12 3 3 6 15 17 15 13 9 2 4 3 3 9 9 6 6 6 6 4 2 5 5 1 4 3 4 1 6 8 6 5 6 5 4 4 4 3 5 4 5 5 5 6 6 6
10 13 12 10 13 10 16 19 21 15 12 7 3 4 5 7 10 8 8 6 7 7 6 6 8 5 5 4 3 4 5 5 7 6 4 4 3 4 3 3 2 2 3 4 5 6 7 7 7
10 11 10 7 10 11 16 12 16 11 10 9 8 4 6 10 8 8 9 8 8 8 8 8 8 7 4 9 2 1 1 2 2 4 4 5 4 2 1 2 3 3 3 4 4 6 7 7 9
10 11 10 13 13 14 16 11 11 16 13 15 11 8 8 7 6 9 12 10 8 9 8 7 8 8 9 9 11 8 7 3 2 5 5 4 2 5 0 1 4 4 3 5 6 7 6 7 9
8 11 14 15 13 12 17 11 4 8 10 12 13 10 7 4 8 11 11 5 5 8 9 7 6 5 6 6 7 7 8 8 7 6 5 3 2 3 4 6 5 4 4 5 6 7 8 8 9
6 9 8 6 9 9 10 2 7 13 11 7 6 7 11 6 4 3 3 8 4 2 6 4 5 3 3 5 5 6 6 6 6 4 3 4 3 3 5 5 5 4 5 6 7 7 8 9 9
9 5 6 7 9 13 15 7 3 17 15 12 9 15 17 13 8 12 13 12 15 15 14 11 9 4 3 3 2 2 4 4 6 5 6 5 5 5 4 4 4 6 7 8 8 8 8 10 9
7 4 11 8 12 12 10 9 16 14 16 13 10 11 9 7 8 9 9 9 11 10 10 13 13 11 13 4 2 5 4 4 4 6 4 5 5 5 6 7 7 8 9 9 9 8 9 10 10
7 9 6 4 7 11 10 14 8 11 4 5 5 3 5 5 9 11 7 5 3 5 7 7 6 8 8 13 9 6 5 7 6 4 5 6 6 6 6 7 8 9 9 9 10 9 9 9 9
2 6 10 8 7 8 11 8 4 16 12 10 12 14 12 14 11 10 12 13 14 14 14 6 6 6 5 5 4 7 10 7 4 3 4 5 4 5 7 7 9 11 10 10 9 10 10 9 12
5 10 9 5 8 9 10 12 17 10 16 17 15 15 16 15 15 15 16 15 14 14 15 15 13 11 11 5 7 5 1 4 6 9 7 8 6 4 6 8 9 10 12 11 9 11 8 11 10
Wind_Direction
297 280 223 256 254 233 293 355 2 88 86 67 105 128 139 133 221 337 81 102 112 121 127 120 115 117 119 124 126 127 128 132 131 126 132 134 129 126 119 111 108 108 107 106 106 108 95 83 79
297 301 268 268 254 308 11 331 74 87 76 94 105 124 127 167 262 103 91 106 115 123 137 131 123 121 122 124 128 129 131 136 136 136 139 139 134 134 131 124 119 111 109 110 106 103 95 87 80
264 262 288 237 251 212 215 309 21 77 66 47 93 52 67 105 112 110 122 116 118 131 123 123 126 123 124 126 126 130 135 138 139 139 143 146 143 140 141 138 132 124 113 108 105 100 94 91 90
290 284 236 259 262 63 187 57 346 117 122 338 113 94 68 72 104 122 135 119 123 142 126 134 128 123 124 128 129 133 137 141 141 142 145 144 143 142 146 150 150 139 123 119 118 119 120 133 142
290 259 269 267 262 161 285 87 296 237 142 103 92 102 95 97 98 110 121 129 142 122 128 136 131 132 135 136 138 137 137 140 144 147 149 149 148 153 158 161 165 161 155 149 144 148 152 210 220
293 281 265 261 280 327 212 107 294 295 114 102 239 117 108 126 135 144 138 140 137 125 134 138 133 134 137 140 142 144 146 148 150 150 152 155 156 161 166 170 173 177 179 182 192 230 261 269 273
276 292 291 302 312 319 97 66 337 6 41 32 3 102 130 132 125 111 119 126 131 123 123 142 148 136 133 137 143 147 150 152 153 152 155 156 160 167 170 177 183 194 205 235 262 263 264 269 259
285 294 292 287 300 284 19 356 80 334 47 37 17 34 116 93 128 145 141 143 139 142 145 149 146 158 161 153 151 151 154 153 154 156 159 164 167 172 178 177 193 199 209 222 233 244 249 256 263
304 283 276 274 35 304 353 271 104 59 312 45 39 62 92 137 214 180 152 160 153 158 151 154 155 163 187 158 158 153 158 160 158 164 169 163 193 180 181 202 197 196 206 219 233 243 243 244 249
223 269 265 306 320 278 335 340 345 3 305 171 165 139 143 175 225 246 187 199 163 163 164 152 151 162 188 157 149 163 162 177 189 183 172 210 220 180 195 194 177 192 199 215 228 235 240 252 261
227 227 274 270 296 305 315 317 318 316 300 338 4 132 142 27 348 290 267 299 33 157 104 124 124 134 172 136 165 167 161 176 190 196 168 213 229 169 185 154 176 181 208 230 222 229 226 244 248
199 235 226 270 282 291 304 292 314 306 308 321 57 34 3 344 297 290 266 286 260 82 84 117 126 104 8 114 178 159 151 176 177 196 188 196 208 99 56 67 69 82 101 311 16 236 254 235 247
216 212 255 239 268 286 288 288 275 296 293 303 324 324 308 288 287 285 302 306 4 98 87 66 103 114 117 1 27 77 115 218 169 178 176 124 142 121 85 63 111 178 177 144 278 288 302 306 295
259 211 228 242 235 268 274 271 277 268 280 260 285 298 291 278 258 292 271 291 315 90 103 118 114 106 129 201 112 80 95 109 242 191 175 191 137 124 127 151 232 219 183 175 202 241 240 253 261
279 278 270 254 235 228 257 271 266 268 263 329 343 313 292 275 279 254 310 168 342 93 113 109 107 106 87 287 183 123 153 139 167 276 43 320 133 180 177 186 209 47 37 0 314 307 340 335 325
275 252 256 252 231 214 179 257 267 317 210 147 242 248 251 252 295 241 164 48 5 352 117 167 204 129 139 174 182 193 176 169 179 66 154 194 128 155 118 135 63 36 16 326 328 348 360 350 338
237 253 251 243 239 167 188 244 330 135 171 232 267 264 264 235 209 250 209 114 350 343 47 180 237 141 153 140 217 201 175 173 165 134 71 346 340 69 30 53 72 34 317 343 18 11 2 320 310
248 246 232 254 149 157 267 279 265 214 187 204 226 266 270 284 55 46 15 17 23 2 15 333 309 128 149 149 229 217 132 250 162 124 161 171 77 64 30 35 89 38 343 357 13 341 310 285 293
291 303 305 7 117 169 267 272 278 283 276 259 214 254 272 18 70 43 27 24 26 20 5 303 277 125 128 142 231 172 182 189 86 81 81 86 79 84 74 31 34 19 7 4 343 320 312 294 308
307 278 278 272 298 48 281 275 272 258 259 261 1 337 312 88 82 61 48 44 42 40 11 286 288 76 178 205 223 305 86 129 112 103 87 88 106 96 87 51 8 37 357 330 309 336 328 318 313
262 267 281 351 346 316 260 262 251 258 211 99 97 250 69 85 90 87 72 70 73 64 47 33 15 61 24 55 28 37 68 62 101 110 132 135 114 97 94 62 53 12 338 328 338 314 300 308 316
281 19 350 311 295 288 329 300 285 184 147 151 158 156 157 97 104 108 106 84 79 73 66 53 42 24 38 3 71 22 360 143 81 135 98 137 150 84 133 96 62 44 6 311 314 334 317 305 297
303 4 308 289 278 280 274 259 270 140 178 163 144 160 120 147 140 138 109 97 102 89 76 58 43 31 24 16 23 3 16 90 144 83 106 66 259 219 170 46 53 28 349 322 296 293 316 312 302
318 286 275 259 249 256 255 233 103 89 77 112 146 155 144 138 108 94 93 120 110 151 128 113 89 45 26 19 21 12 16 8 16 24 8 327 350 30 27 43 38 355 300 306 315 294 293 293 294
233 312 313 302 216 246 87 267 301 111 114 88 52 81 141 107 49 343 352 152 130 318 96 108 127 78 66 1 5 1 6 2 337 301 310 350 337 354 7 31 358 313 314 307 302 300 293 285 282
309 345 311 315 329 323 334 308 25 90 82 64 55 62 61 59 52 50 42 28 24 22 12 7 352 309 258 209 247 347 349 328 326 351 9 349 354 321 337 316 325 321 314 310 304 298 296 290 285
4 336 359 316 289 267 292 327 82 95 76 62 57 32 32 38 20 15 17 10 5 357 359 344 347 352 342 320 287 203 204 255 276 317 327 302 298 318 333 321 316 318 305 304 301 294 294 289 291
266 349 317 282 288 293 303 332 347 53 83 117 13 327 282 309 324 352 3 331 334 334 319 37 348 334 345 358 337 304 215 214 206 226 251 264 272 285 305 316 312 300 301 296 288 290 291 304 302
260 301 318 314 327 295 297 280 302 11 8 11 347 345 10 18 11 359 338 343 347 343 335 292 280 280 280 259 287 307 333 325 296 272 303 298 282 289 292 299 307 301 298 291 292 292 293 305 296
315 296 303 309 307 309 310 289 281 324 352 342 334 7 8 3 348 349 348 341 332 326 326 342 345 344 336 18 36 15 335 346 352 323 333 312 304 299 296 297 289 303 303 296 307 301 311 306 312